History for ZGHA

Huanghua, HN

Daily Weekly Monthly
Daily Summary for Monday, March 25, 2019
  Actual: Average: Record:
Temperature
Mean Temperature: 57 °F / 14 °C - :  
Max Temperature: 68 °F / 20 °C - - ()
Min Temperature: 46 °F / 8 °C - - ()
Degree Days
Heating Degree Days: 8    
Growing Degree Days 7 (Base 50)    
Moisture
Dew Point 46 °F / 8 °C    
Average Humidity 76    
Maximum Humidity 100    
Minimum Humidity 40    
Precipitation
Precipitation 0.00 in / 0.0 cm - - ()
Sea Level Pressure
Sea Level Pressure 30.11 in / 1019.55 hPa   
Wind
Wind Speed 3 mph / 5 km/h ()  
Max Wind Speed 7 mph / 11 km/h   
Max Gust Speed -   
Visibility 2.0 miles / 3.3 kilometers   
Events Fog , Rain   

Key: T is trace of precipitation, MM is missing value
Source: Averaged Metar Reports

Graphs

Observations

History Graphs Observations

Obs Go Here...

Features

Weather Apps

WunderRadio

Weather Underground Apps
Check out our wide variety of mobile and setup applications.

Weather Underground Applications

Top of Page

© Copyright 2019
The Weather Company, LLC
Time(CST)TemperatureDew PointHumidity Sea Level Pressure Visibility Wind DirectionWind SpeedGust SpeedPrecipitationEvents Conditions
12:00 AM 50.0 °F / 10.0 °C 48.2 °F / 9.0 °C 94% 30.15 in / 1021 hPa 1.9 miles / 3.0 kilometers WSW 4.5 mph / 7.2 km/h - N/A Rain Light Rain
1:00 AM 50.0 °F / 10.0 °C 48.2 °F / 9.0 °C 94% 30.12 in / 1020 hPa 2.5 miles / 4.0 kilometers Variable 2.2 mph / 3.6 km/h - N/A   Mostly Cloudy
2:00 AM 48.2 °F / 9.0 °C 48.2 °F / 9.0 °C 100% 30.12 in / 1020 hPa 1.7 miles / 2.8 kilometers SW 2.2 mph / 3.6 km/h - N/A   Mostly Cloudy
3:00 AM 46.4 °F / 8.0 °C 46.4 °F / 8.0 °C 100% 30.12 in / 1020 hPa 1.6 miles / 2.5 kilometers South 4.5 mph / 7.2 km/h - N/A   Mostly Cloudy
4:00 AM 46.4 °F / 8.0 °C 44.6 °F / 7.0 °C 93% 30.09 in / 1019 hPa 1.1 miles / 1.8 kilometers WSW 2.2 mph / 3.6 km/h - N/A   Scattered Clouds
5:00 AM 46.4 °F / 8.0 °C 46.4 °F / 8.0 °C 100% 30.09 in / 1019 hPa 0.6 miles / 0.9 kilometers SSW 6.7 mph / 10.8 km/h - N/A Fog Fog
6:00 AM 46.4 °F / 8.0 °C 46.4 °F / 8.0 °C 100% 30.12 in / 1020 hPa 1.1 miles / 1.8 kilometers SSW 4.5 mph / 7.2 km/h - N/A   Mostly Cloudy
7:00 AM 48.2 °F / 9.0 °C 46.4 °F / 8.0 °C 93% 30.15 in / 1021 hPa 1.4 miles / 2.3 kilometers SSW 4.5 mph / 7.2 km/h - N/A   Overcast
8:00 AM 48.2 °F / 9.0 °C 44.6 °F / 7.0 °C 87% 30.18 in / 1022 hPa 1.9 miles / 3.0 kilometers SSW 6.7 mph / 10.8 km/h - N/A   Overcast
9:00 AM 48.2 °F / 9.0 °C 46.4 °F / 8.0 °C 93% 30.18 in / 1022 hPa 1.9 miles / 3.0 kilometers South 6.7 mph / 10.8 km/h - N/A   Overcast
11:00 AM 51.8 °F / 11.0 °C 44.6 °F / 7.0 °C 76% 30.18 in / 1022 hPa 3.1 miles / 5.0 kilometers South 4.5 mph / 7.2 km/h - N/A   Overcast
1:00 PM 59.0 °F / 15.0 °C 44.6 °F / 7.0 °C 59% 30.15 in / 1021 hPa 5.6 miles / 9.0 kilometers SW 4.5 mph / 7.2 km/h - N/A   Partly Cloudy
2:00 PM 62.6 °F / 17.0 °C 44.6 °F / 7.0 °C 52% 30.12 in / 1020 hPa - Variable 4.5 mph / 7.2 km/h - N/A   Clear
3:00 PM 66.2 °F / 19.0 °C 42.8 °F / 6.0 °C 43% 30.09 in / 1019 hPa - Variable 4.5 mph / 7.2 km/h - N/A   Clear
4:00 PM 66.2 °F / 19.0 °C 44.6 °F / 7.0 °C 46% 30.06 in / 1018 hPa - West 4.5 mph / 7.2 km/h - N/A   Clear
5:00 PM 68.0 °F / 20.0 °C 42.8 °F / 6.0 °C 40% 30.04 in / 1017 hPa - Variable 2.2 mph / 3.6 km/h - N/A   Clear
6:00 PM 66.2 °F / 19.0 °C 42.8 °F / 6.0 °C 43% 30.04 in / 1017 hPa - Variable 2.2 mph / 3.6 km/h - N/A   Clear
7:00 PM 62.6 °F / 17.0 °C 46.4 °F / 8.0 °C 55% 30.04 in / 1017 hPa - Variable 2.2 mph / 3.6 km/h - N/A   Clear
8:00 PM 59.0 °F / 15.0 °C 48.2 °F / 9.0 °C 67% 30.06 in / 1018 hPa - NE 2.2 mph / 3.6 km/h - N/A   Clear
9:00 PM 55.4 °F / 13.0 °C 50.0 °F / 10.0 °C 82% 30.06 in / 1018 hPa - Calm Calm - N/A   Clear